Time,TemperatureF,DewpointF,PressureIn,WindDirection,WindDirectionDegrees,WindSpeedMPH,WindSpeedGustMPH,Humidity,HourlyPrecipIn,Conditions,Clouds,dailyrainin,SoftwareType,DateUTC
2013-09-12 00:12:00,69.4,69.0,29.99,SE,146,0.0,0.0,98,0.00,,,0.00,weatherlink.com 1.10,2013-09-12 04:12:00,
2013-09-12 00:27:00,69.2,69.0,29.98,SE,146,0.0,0.0,99,0.00,,,0.00,weatherlink.com 1.10,2013-09-12 04:27:00,
2013-09-12 00:42:00,69.0,69.0,29.98,SE,146,0.0,0.0,99,0.00,,,0.00,weatherlink.com 1.10,2013-09-12 04:42:00,
2013-09-12 00:57:00,68.9,69.0,29.97,SE,146,0.0,0.0,99,0.00,,,0.00,weatherlink.com 1.10,2013-09-12 04:57:00,
2013-09-12 01:12:00,68.7,68.0,29.97,SE,146,0.0,0.0,99,0.00,,,0.00,weatherlink.com 1.10,2013-09-12 05:12:00,
2013-09-12 01:27:00,68.6,68.0,29.97,SE,146,0.0,0.0,99,0.00,,,0.00,weatherlink.com 1.10,2013-09-12 05:27:00,
2013-09-12 01:42:00,68.6,68.0,29.96,SE,146,0.0,0.0,99,0.00,,,0.00,weatherlink.com 1.10,2013-09-12 05:42:00,
2013-09-12 01:57:00,68.5,68.0,29.96,SE,146,0.0,0.0,99,0.00,,,0.00,weatherlink.com 1.10,2013-09-12 05:57:00,
2013-09-12 02:12:00,68.3,68.0,29.95,SE,137,0.0,1.0,99,0.00,,,0.00,weatherlink.com 1.10,2013-09-12 06:12:00,
2013-09-12 02:27:00,68.3,68.0,29.95,SE,136,0.0,1.0,99,0.00,,,0.00,weatherlink.com 1.10,2013-09-12 06:27:00,
2013-09-12 02:43:00,68.3,68.0,29.94,SE,136,0.0,1.0,99,0.00,,,0.00,weatherlink.com 1.10,2013-09-12 06:43:00,
2013-09-12 02:58:00,68.3,68.0,29.95,ENE,59,0.0,1.0,99,0.00,,,0.00,weatherlink.com 1.10,2013-09-12 06:58:00,
2013-09-12 03:13:00,68.2,68.0,29.94,NNW,338,0.0,1.0,99,0.00,,,0.00,weatherlink.com 1.10,2013-09-12 07:13:00,
2013-09-12 03:28:00,68.1,68.0,29.94,North,8,0.0,1.0,99,0.00,,,0.00,weatherlink.com 1.10,2013-09-12 07:28:00,
2013-09-12 03:43:00,68.1,68.0,29.94,NE,41,0.0,1.0,99,0.00,,,0.00,weatherlink.com 1.10,2013-09-12 07:43:00,
2013-09-12 03:58:00,68.0,68.0,29.94,NE,37,0.0,1.0,99,0.00,,,0.00,weatherlink.com 1.10,2013-09-12 07:58:00,
2013-09-12 04:13:00,67.9,68.0,29.94,NE,37,0.0,1.0,99,0.00,,,0.00,weatherlink.com 1.10,2013-09-12 08:13:00,
2013-09-12 04:28:00,67.7,67.0,29.94,NE,37,0.0,0.0,99,0.00,,,0.00,weatherlink.com 1.10,2013-09-12 08:28:00,
2013-09-12 04:43:00,67.6,67.0,29.93,NE,37,0.0,0.0,99,0.00,,,0.00,weatherlink.com 1.10,2013-09-12 08:43:00,
2013-09-12 04:58:00,67.5,67.0,29.94,NE,37,0.0,1.0,99,0.00,,,0.00,weatherlink.com 1.10,2013-09-12 08:58:00,
2013-09-12 05:13:00,67.5,67.0,29.93,NE,37,0.0,0.0,99,0.00,,,0.00,weatherlink.com 1.10,2013-09-12 09:13:00,
2013-09-12 05:28:00,67.5,67.0,29.93,NE,37,0.0,0.0,99,0.00,,,0.00,weatherlink.com 1.10,2013-09-12 09:28:00,
2013-09-12 05:43:00,67.4,67.0,29.93,NE,37,0.0,1.0,99,0.00,,,0.00,weatherlink.com 1.10,2013-09-12 09:43:00,
2013-09-12 05:58:00,67.3,67.0,29.92,NE,37,0.0,1.0,99,0.00,,,0.00,weatherlink.com 1.10,2013-09-12 09:58:00,
2013-09-12 06:13:00,67.2,67.0,29.92,NE,37,0.0,0.0,99,0.00,,,0.00,weatherlink.com 1.10,2013-09-12 10:13:00,
2013-09-12 06:28:00,67.2,67.0,29.92,NE,37,0.0,0.0,99,0.00,,,0.00,weatherlink.com 1.10,2013-09-12 10:28:00,
2013-09-12 06:43:00,67.1,67.0,29.91,ENE,65,0.0,1.0,99,0.00,,,0.00,weatherlink.com 1.10,2013-09-12 10:43:00,
2013-09-12 06:58:00,67.3,67.0,29.92,ENE,65,0.0,0.0,100,0.00,,,0.00,weatherlink.com 1.10,2013-09-12 10:58:00,
2013-09-12 07:13:00,67.4,67.0,29.91,ENE,65,0.0,0.0,100,0.00,,,0.00,weatherlink.com 1.10,2013-09-12 11:13:00,
2013-09-12 07:28:00,67.7,68.0,29.92,ENE,65,0.0,0.0,100,0.00,,,0.00,weatherlink.com 1.10,2013-09-12 11:28:00,
2013-09-12 07:43:00,68.2,68.0,29.92,ENE,65,0.0,0.0,100,0.00,,,0.00,weatherlink.com 1.10,2013-09-12 11:43:00,
2013-09-12 07:58:00,68.7,69.0,29.91,ENE,65,0.0,0.0,100,0.00,,,0.00,weatherlink.com 1.10,2013-09-12 11:58:00,
2013-09-12 08:13:00,69.1,69.0,29.90,ENE,65,0.0,0.0,99,0.00,,,0.00,weatherlink.com 1.10,2013-09-12 12:13:00,
2013-09-12 08:28:00,69.7,69.0,29.90,SE,135,0.0,1.0,99,0.00,,,0.00,weatherlink.com 1.10,2013-09-12 12:28:00,
2013-09-12 08:43:00,70.6,70.0,29.89,SE,135,0.0,0.0,98,0.00,,,0.00,weatherlink.com 1.10,2013-09-12 12:43:00,
2013-09-12 08:58:00,71.2,70.0,29.89,SE,136,0.0,0.0,97,0.00,,,0.00,weatherlink.com 1.10,2013-09-12 12:58:00,
2013-09-12 09:13:00,71.8,71.0,29.88,SE,135,0.0,1.0,97,0.00,,,0.00,weatherlink.com 1.10,2013-09-12 13:13:00,
2013-09-12 09:28:00,73.0,72.0,29.88,SE,134,0.0,1.0,96,0.00,,,0.00,weatherlink.com 1.10,2013-09-12 13:28:00,
2013-09-12 09:43:00,73.7,72.0,29.88,SE,136,0.0,1.0,95,0.00,,,0.00,weatherlink.com 1.10,2013-09-12 13:43:00,
2013-09-12 09:58:00,74.7,73.0,29.87,SE,139,0.0,0.0,93,0.00,,,0.00,weatherlink.com 1.10,2013-09-12 13:58:00,
2013-09-12 10:13:00,75.6,73.0,29.86,South,188,0.0,2.0,90,0.00,,,0.00,weatherlink.com 1.10,2013-09-12 14:13:00,
2013-09-12 10:28:00,76.2,73.0,29.86,South,169,0.0,1.0,90,0.00,,,0.00,weatherlink.com 1.10,2013-09-12 14:28:00,
2013-09-12 10:43:00,76.3,73.0,29.86,SSW,207,0.0,0.0,90,0.00,,,0.00,weatherlink.com 1.10,2013-09-12 14:43:00,
2013-09-12 10:58:00,76.3,73.0,29.86,South,181,0.0,1.0,90,0.00,,,0.00,weatherlink.com 1.10,2013-09-12 14:58:00,
2013-09-12 11:13:00,77.5,73.0,29.84,SW,236,0.0,1.0,86,0.00,,,0.00,weatherlink.com 1.10,2013-09-12 15:13:00,
2013-09-12 11:29:00,79.2,75.0,29.84,ESE,113,0.0,2.0,86,0.00,,,0.00,weatherlink.com 1.10,2013-09-12 15:29:00,
2013-09-12 11:44:00,80.2,76.0,29.84,NW,323,1.0,2.0,86,0.00,,,0.00,weatherlink.com 1.10,2013-09-12 15:44:00,
2013-09-12 11:59:00,81.4,75.0,29.83,NNW,327,0.0,3.0,80,0.00,,,0.00,weatherlink.com 1.10,2013-09-12 15:59:00,
2013-09-12 12:14:00,82.3,76.0,29.83,NNW,329,0.0,2.0,82,0.00,,,0.00,weatherlink.com 1.10,2013-09-12 16:14:00,
2013-09-12 12:29:00,83.4,77.0,29.81,South,169,0.0,2.0,81,0.00,,,0.00,weatherlink.com 1.10,2013-09-12 16:29:00,
2013-09-12 12:44:00,83.7,76.0,29.81,NNW,328,0.0,3.0,77,0.00,,,0.00,weatherlink.com 1.10,2013-09-12 16:44:00,
2013-09-12 12:59:00,82.5,75.0,29.81,South,170,0.0,3.0,79,0.00,,,0.00,weatherlink.com 1.10,2013-09-12 16:59:00,
2013-09-12 13:14:00,82.0,75.0,29.80,SSW,212,0.0,2.0,79,0.00,,,0.00,weatherlink.com 1.10,2013-09-12 17:14:00,
2013-09-12 13:29:00,82.1,76.0,29.79,SE,130,0.0,2.0,82,0.00,,,0.00,weatherlink.com 1.10,2013-09-12 17:29:00,
2013-09-12 13:44:00,83.2,76.0,29.78,SSE,152,1.0,1.0,79,0.00,,,0.00,weatherlink.com 1.10,2013-09-12 17:44:00,
2013-09-12 13:59:00,81.9,76.0,29.78,SSW,195,0.0,3.0,82,0.00,,,0.00,weatherlink.com 1.10,2013-09-12 17:59:00,
2013-09-12 14:14:00,79.6,76.0,29.78,ENE,64,0.0,1.0,89,0.09,,,0.09,weatherlink.com 1.10,2013-09-12 18:14:00,
2013-09-12 14:29:00,78.2,76.0,29.76,North,352,0.0,1.0,94,0.09,,,0.09,weatherlink.com 1.10,2013-09-12 18:29:00,
2013-09-12 14:44:00,79.8,78.0,29.75,SE,125,0.0,2.0,94,0.09,,,0.09,weatherlink.com 1.10,2013-09-12 18:44:00,
2013-09-12 14:59:00,81.6,78.0,29.73,SW,233,3.0,5.0,89,0.09,,,0.09,weatherlink.com 1.10,2013-09-12 18:59:00,
2013-09-12 15:14:00,80.4,76.0,29.73,East,85,0.0,2.0,85,0.00,,,0.09,weatherlink.com 1.10,2013-09-12 19:14:00,
2013-09-12 15:44:00,81.2,77.0,29.73,SW,222,0.0,1.0,87,0.00,,,0.09,weatherlink.com 1.10,2013-09-12 19:44:00,
2013-09-12 15:59:00,82.3,77.0,29.72,NNW,336,0.0,2.0,84,0.00,,,0.09,weatherlink.com 1.10,2013-09-12 19:59:00,
2013-09-12 16:14:00,81.0,77.0,29.72,ENE,78,0.0,1.0,86,0.00,,,0.09,weatherlink.com 1.10,2013-09-12 20:14:00,
2013-09-12 16:29:00,76.9,74.0,29.73,West,260,0.0,5.0,90,0.24,,,0.33,weatherlink.com 1.10,2013-09-12 20:29:00,
2013-09-12 16:44:00,72.1,70.0,29.73,WNW,290,1.0,2.0,92,0.31,,,0.41,weatherlink.com 1.10,2013-09-12 20:44:00,
2013-09-12 16:57:00,-999.0,-99.9,0.00,North,-999,-999.0,-999.0,-999,0.00,,,0.00,weatherlink.com 1.10,2013-09-12 20:57:00,
2013-09-12 17:10:00,70.3,69.0,29.71,North,4,0.0,1.0,97,0.00,,,0.00,weatherlink.com 1.10,2013-09-12 21:10:00,
2013-09-12 17:26:00,70.4,70.0,29.72,North,358,0.0,1.0,98,0.02,,,0.02,weatherlink.com 1.10,2013-09-12 21:26:00,
2013-09-12 17:41:00,70.9,70.0,29.71,North,358,0.0,0.0,98,0.02,,,0.02,weatherlink.com 1.10,2013-09-12 21:41:00,
2013-09-12 17:56:00,70.9,70.0,29.71,North,358,0.0,1.0,98,0.02,,,0.02,weatherlink.com 1.10,2013-09-12 21:56:00,
2013-09-12 18:11:00,70.9,70.0,29.71,North,358,0.0,0.0,98,0.02,,,0.02,weatherlink.com 1.10,2013-09-12 22:11:00,
2013-09-12 18:26:00,70.7,70.0,29.71,North,358,0.0,0.0,98,0.01,,,0.02,weatherlink.com 1.10,2013-09-12 22:26:00,
2013-09-12 18:41:00,70.6,70.0,29.71,North,358,0.0,0.0,98,0.00,,,0.02,weatherlink.com 1.10,2013-09-12 22:41:00,
2013-09-12 18:56:00,70.6,70.0,29.72,East,101,1.0,2.0,99,0.00,,,0.02,weatherlink.com 1.10,2013-09-12 22:56:00,
2013-09-12 19:11:00,70.6,70.0,29.74,South,184,0.0,4.0,98,0.05,,,0.07,weatherlink.com 1.10,2013-09-12 23:11:00,
2013-09-12 19:26:00,69.4,68.0,29.71,SW,214,0.0,1.0,96,0.11,,,0.13,weatherlink.com 1.10,2013-09-12 23:26:00,
2013-09-12 19:41:00,68.8,68.0,29.71,SW,214,0.0,0.0,97,0.11,,,0.13,weatherlink.com 1.10,2013-09-12 23:41:00,
2013-09-12 19:56:00,68.5,68.0,29.72,SSW,212,0.0,1.0,98,0.11,,,0.13,weatherlink.com 1.10,2013-09-12 23:56:00,
2013-09-12 20:11:00,68.3,68.0,29.73,SW,214,0.0,0.0,98,0.05,,,0.15,weatherlink.com 1.10,2013-09-13 00:11:00,
2013-09-12 20:26:00,68.3,68.0,29.74,SW,214,0.0,1.0,99,0.04,,,0.17,weatherlink.com 1.10,2013-09-13 00:26:00,
2013-09-12 20:41:00,68.3,68.0,29.75,SSW,212,0.0,0.0,99,0.07,,,0.20,weatherlink.com 1.10,2013-09-13 00:41:00,
2013-09-12 20:56:00,68.3,68.0,29.74,SW,214,0.0,0.0,99,0.09,,,0.23,weatherlink.com 1.10,2013-09-13 00:56:00,
2013-09-12 21:11:00,68.1,68.0,29.74,SW,214,0.0,0.0,99,0.09,,,0.24,weatherlink.com 1.10,2013-09-13 01:11:00,
2013-09-12 21:26:00,67.9,68.0,29.73,SW,214,0.0,0.0,99,0.06,,,0.24,weatherlink.com 1.10,2013-09-13 01:26:00,
2013-09-12 21:41:00,67.8,68.0,29.73,SW,214,0.0,0.0,99,0.03,,,0.24,weatherlink.com 1.10,2013-09-13 01:41:00,
2013-09-12 21:56:00,67.8,68.0,29.73,SW,214,0.0,0.0,99,0.01,,,0.24,weatherlink.com 1.10,2013-09-13 01:56:00,
2013-09-12 22:11:00,67.8,68.0,29.72,SW,214,0.0,0.0,99,0.00,,,0.24,weatherlink.com 1.10,2013-09-13 02:11:00,
2013-09-12 22:41:00,-999.0,-99.9,0.00,North,-999,-999.0,-999.0,-999,0.00,,,0.00,weatherlink.com 1.10,2013-09-13 02:41:00,
2013-09-12 22:54:00,67.7,68.0,29.72,SW,214,0.0,0.0,100,0.00,,,0.00,weatherlink.com 1.10,2013-09-13 02:54:00,
2013-09-12 23:09:00,67.6,68.0,29.73,SW,214,0.0,0.0,100,0.00,,,0.00,weatherlink.com 1.10,2013-09-13 03:09:00,
2013-09-12 23:24:00,67.5,68.0,29.73,SW,214,0.0,0.0,100,0.00,,,0.00,weatherlink.com 1.10,2013-09-13 03:24:00,
2013-09-12 23:39:00,67.4,67.0,29.72,SW,214,0.0,0.0,100,0.00,,,0.00,weatherlink.com 1.10,2013-09-13 03:39:00,
2013-09-12 23:54:00,67.5,68.0,29.71,SSW,212,0.0,0.0,100,0.01,,,0.01,weatherlink.com 1.10,2013-09-13 03:54:00,